FW1775 Weather Reports


Display with metric or nautical units.
time (UTC)temp
F
wind
direction
speed
MPH
gust
MPH
rain 1hr
in
rain 24hr
in
rain mn
in
humidity
%
barometer
mb
20260504010007 44 165 0.0 2.0 0.00 0.07 0.07 99 972.6
20260504005508 44 177 1.0 2.0 0.00 0.07 0.07 99 972.6
20260504005008 45 169 0.0 0.0 0.00 0.07 0.07 99 972.7
20260504004508 45 156 0.0 0.0 0.00 0.07 0.07 99 972.7
20260504004008 45 158 0.0 0.0 0.00 0.07 0.07 99 972.7
20260504003508 45 157 0.0 1.0 0.00 0.07 0.07 99 972.7
20260504003008 45 150 1.0 2.0 0.00 0.07 0.07 99 972.7
20260504002508 45 159 1.0 2.0 0.00 0.07 0.07 99 972.8
20260504001008 45 131 1.0 2.0 0.00 0.07 0.07 99 972.6
20260504000508 45 171 1.0 2.0 0.00 0.07 0.07 99 972.6
20260504000008 45 160 0.0 2.0 0.00 0.07 0.07 99 972.7
20260503235508 46 172 1.0 2.0 0.00 0.07 0.07 99 972.7
20260503234008 46 180 1.0 2.0 0.00 0.07 0.07 99 972.8
20260503233509 46 150 2.0 2.0 0.00 0.07 0.07 99 972.8
20260503233008 46 165 0.0 0.0 0.00 0.07 0.07 99 972.8
20260503232508 46 169 0.0 0.0 0.00 0.07 0.07 99 973.1
20260503232008 46 178 0.0 0.0 0.01 0.07 0.07 99 973.1
20260503231508 46 180 0.0 1.0 0.02 0.07 0.07 99 973.1
20260503231008 46 175 1.0 1.0 0.03 0.07 0.07 99 973.1
20260503230508 46 183 0.0 0.0 0.03 0.07 0.07 99 973.1
20260503225510 46 169 0.0 0.0 0.04 0.07 0.07 99 973.2
20260503225008 46 180 0.0 0.0 0.04 0.07 0.07 99 973.3
20260503223508 46 180 0.0 0.0 0.04 0.07 0.07 99 973.3
20260503223007 46 222 0.0 1.0 0.04 0.07 0.07 99 973.3
20260503222508 46 213 0.0 1.0 0.05 0.07 0.07 99 973.5
20260503221507 46 263 0.0 1.0 0.03 0.05 0.05 98 973.5
20260503221007 46 232 0.0 1.0 0.03 0.04 0.04 98 973.5
20260503220507 46 277 0.0 2.0 0.03 0.04 0.04 97 973.5
20260503215508 47 219 1.0 2.0 0.02 0.03 0.03 96 973.5
20260503215008 47 165 1.0 5.0 0.02 0.03 0.03 96 973.4
20260503213507 48 203 0.0 6.0 0.03 0.03 0.03 94 973.3
20260503213008 48 163 3.0 6.0 0.03 0.03 0.03 92 973.3
20260503212508 48 219 1.0 2.0 0.02 0.02 0.02 89 972.9
20260503212008 49 267 0.0 0.0 0.02 0.02 0.02 89 972.9
20260503211508 49 202 0.0 1.0 0.02 0.02 0.02 89 972.9
20260503211008 49 192 0.0 2.0 0.01 0.01 0.01 87 973.2
20260503210508 49 202 1.0 2.0 0.01 0.01 0.01 86 973.2
20260503210008 49 265 1.0 5.0 0.01 0.01 0.01 84 973.1
20260503205008 50 195 2.0 12.0 0.01 0.01 0.01 79 973.3
20260503204508 49 171 3.0 12.0 0.00 0.00 0.00 77 973.5
20260503204008 50 201 2.0 6.0 0.00 0.00 0.00 76 973.5
20260503203508 51 168 3.0 7.0 0.00 0.00 0.00 75 973.3
20260503203007 51 245 4.0 7.0 0.00 0.00 0.00 71 973.3
20260503202507 52 108 3.0 3.0 0.00 0.00 0.00 69 973.5
20260503202008 52 158 2.0 2.0 0.00 0.00 0.00 68 973.5
20260503201508 53 161 2.0 2.0 0.00 0.00 0.00 64 973.5
20260503201008 54 172 2.0 5.0 0.00 0.00 0.00 60 973.3
20260503200508 54 112 3.0 6.0 0.00 0.00 0.00 60 973.3
20260503195507 54 146 2.0 5.0 0.00 0.00 0.00 60 973.2
20260503195008 53 164 3.0 5.0 0.00 0.00 0.00 58 973.3
20260503194507 54 235 2.0 3.0 0.00 0.00 0.00 58 973.5
20260503194008 54 75 2.0 3.0 0.00 0.00 0.00 58 973.5
20260503193508 53 131 3.0 3.0 0.00 0.00 0.00 59 974.0
20260503192508 53 316 3.0 5.0 0.00 0.00 0.00 61 974.4
20260503192007 52 67 3.0 6.0 0.00 0.00 0.00 58 974.4
20260503191508 52 341 3.0 6.0 0.00 0.00 0.00 60 974.4
20260503191008 53 258 3.0 6.0 0.00 0.00 0.00 59 974.7
20260503190507 53 218 3.0 5.0 0.00 0.00 0.00 56 974.7
20260503190008 54 268 3.0 7.0 0.00 0.00 0.00 56 974.9
20260503185507 53 128 3.0 8.0 0.00 0.00 0.00 55 974.9
20260503185008 53 270 5.0 10.0 0.00 0.00 0.00 56 974.9
20260503184507 54 157 6.0 10.0 0.00 0.00 0.00 54 974.9
20260503184008 54 171 3.0 7.0 0.00 0.00 0.00 50 974.9
20260503183507 55 157 5.0 7.0 0.00 0.00 0.00 50 974.9
20260503183008 54 245 3.0 6.0 0.00 0.00 0.00 49 974.9
20260503182507 54 142 3.0 7.0 0.00 0.00 0.00 50 975.0
20260503182007 54 191 5.0 7.0 0.00 0.00 0.00 49 975.0
20260503181508 55 163 5.0 9.0 0.00 0.00 0.00 49 975.0
20260503181008 55 166 5.0 9.0 0.00 0.00 0.00 49 975.1
20260503180007 54 158 5.0 10.0 0.00 0.00 0.00 48 975.1
20260503175507 55 179 7.0 8.0 0.00 0.00 0.00 47 975.1
20260503174007 57 196 3.0 9.0 0.00 0.00 0.00 46 975.2
20260503173007 55 201 6.0 8.0 0.00 0.00 0.00 48 975.4
20260503172507 54 141 4.0 8.0 0.00 0.00 0.00 50 975.4
20260503172008 54 158 5.0 8.0 0.00 0.00 0.00 49 975.4
20260503171507 55 219 3.0 7.0 0.00 0.00 0.00 48 975.4
20260503171007 54 167 6.0 8.0 0.00 0.00 0.00 48 975.8
20260503170507 54 147 6.0 8.0 0.00 0.00 0.00 49 975.8
20260503151008 51 122 5.0 8.0 0.00 0.00 0.00 52 977.3
20260503150506 51 181 5.0 7.0 0.00 0.00 0.00 53 977.3
20260503131008 47 180 2.0 3.0 0.00 0.00 0.00 63 977.9
20260503130507 47 186 2.0 3.0 0.00 0.00 0.00 62 977.9
20260503110507 28 180 0.0 0.0 0.00 0.00 0.00 96 978.1
20260503090508 28 180 0.0 0.0 0.00 0.00 0.00 91 978.7
20260503081509 30 180 1.0 2.0 0.00 0.01 0.00 89 979.0
20260503081008 30 180 0.0 0.0 0.00 0.01 0.00 88 979.0
20260503080509 30 180 0.0 0.0 0.00 0.01 0.00 88 979.0
20260503072509 30 180 0.0 1.0 0.00 0.01 0.00 86 978.9
20260503072009 31 180 1.0 2.0 0.00 0.01 0.00 86 978.9
20260503071509 30 165 0.0 2.0 0.00 0.01 0.00 86 978.9
20260503071009 30 192 1.0 3.0 0.00 0.01 0.00 86 978.9
20260503070509 30 188 1.0 3.0 0.00 0.01 0.00 85 978.9
20260503055008 28 174 0.0 0.0 0.00 0.01 0.00 91 979.4
20260503054508 28 158 0.0 0.0 0.00 0.01 0.00 91 979.5
20260503054008 28 180 0.0 0.0 0.00 0.01 0.00 91 979.5
20260503053509 28 180 0.0 0.0 0.00 0.01 0.00 92 979.5
20260503053008 28 180 0.0 0.0 0.00 0.01 0.00 92 979.5
20260503052509 28 158 0.0 0.0 0.00 0.01 0.00 92 979.8
20260503052008 28 174 0.0 0.0 0.00 0.01 0.00 92 979.8
20260503051508 28 159 0.0 0.0 0.00 0.01 0.00 92 979.8
20260503050509 28 158 0.0 0.0 0.00 0.01 0.00 92 979.9
20260503050008 28 160 0.0 0.0 0.00 0.01 0.00 92 979.9
20260503045508 28 170 0.0 0.0 0.00 0.01 0.00 92 979.9
20260503045008 28 164 0.0 0.0 0.00 0.01 0.00 92 979.9
20260503044008 29 179 0.0 0.0 0.00 0.01 0.00 92 979.9
20260503043509 29 184 0.0 0.0 0.00 0.01 0.00 91 980.1
20260503043009 29 160 0.0 0.0 0.00 0.01 0.00 90 980.1
20260503042008 29 177 0.0 0.0 0.00 0.01 0.00 88 980.1
20260503041508 29 180 0.0 0.0 0.00 0.01 0.00 88 980.1
20260503041008 29 168 0.0 0.0 0.00 0.01 0.00 87 979.9
20260503040509 29 184 0.0 0.0 0.00 0.01 0.00 86 979.9
20260503040008 29 200 0.0 1.0 0.00 0.01 0.00 87 980.0
20260503035509 29 180 0.0 3.0 0.00 0.01 0.01 87 980.0
20260503035009 30 55 1.0 3.0 0.00 0.01 0.01 87 980.0
20260503034508 29 194 0.0 1.0 0.00 0.01 0.01 87 980.1
20260503034009 29 203 0.0 1.0 0.00 0.01 0.01 87 980.1
20260503033008 30 179 0.0 0.0 0.00 0.01 0.01 85 980.1
20260503032509 30 180 0.0 0.0 0.00 0.01 0.01 84 980.2
20260503032008 30 180 0.0 0.0 0.00 0.01 0.01 86 980.2
20260503030508 31 196 0.0 0.0 0.00 0.01 0.01 81 980.1
20260503025508 31 180 0.0 0.0 0.00 0.01 0.01 79 980.2
20260503025009 31 180 0.0 0.0 0.00 0.01 0.01 80 980.2
20260503024508 32 180 0.0 0.0 0.00 0.01 0.01 80 980.4
20260503023509 32 202 0.0 0.0 0.00 0.01 0.01 79 980.5
20260503023008 32 238 0.0 0.0 0.00 0.01 0.01 78 980.5
20260503022508 33 193 0.0 0.0 0.00 0.01 0.01 79 980.4
20260503022008 33 199 0.0 0.0 0.00 0.01 0.01 76 980.4
20260503021508 33 202 0.0 0.0 0.00 0.01 0.01 76 980.4
20260503021008 33 180 0.0 0.0 0.00 0.01 0.01 77 980.2
20260503020509 34 215 0.0 0.0 0.00 0.01 0.01 76 980.2
20260503015508 34 246 0.0 1.0 0.00 0.01 0.01 74 980.4
20260503015008 34 209 0.0 1.0 0.00 0.01 0.01 73 980.4
20260503014008 35 330 1.0 3.0 0.00 0.01 0.01 72 980.3
20260503012009 35 192 0.0 1.0 0.00 0.01 0.01 73 980.0
20260503011508 36 299 0.0 2.0 0.00 0.01 0.01 73 980.0
20260503011008 36 247 0.0 3.0 0.00 0.01 0.01 73 979.9
20260503010508 36 307 2.0 3.0 0.00 0.01 0.01 71 979.9